Hourly Data Report for September 05, 2017

All times are specified in Local Standard Time (LST). Add 1 hour to adjust for Daylight Saving Time where and when it is observed.

ARVIAT A
NUNAVUT

61°05'38.000" N
94°04'18.000" W
10.40 m
2300427
71174
YEK

Download Data

Hourly Data (September 2017)
Hourly Data Report for September 5, 2017
Temp Definition
°C
Dew Point Temp Definition
°C
Rel Hum Definition
%
Wind Dir Definition
10's deg

Wind Spd Definition
km/h
Visibility Definition
km
Stn Press Definition
kPa
Hmdx Definition


Wind Chill Definition


Weather Definition


TIME
00:00 Legend Double Dagger 3.6 3.5 99 28 11 11.3 101.59     LegendNANA
01:00 Legend Double Dagger 3.1 3.0 99 32 11 16.1 101.59     LegendNANA
02:00 Legend Double Dagger 3.7 3.0 95 33 17 16.1 101.59     LegendNANA
03:00 Legend Double Dagger 3.7 2.7 93 33 18 16.1 101.62     LegendNANA
04:00 Legend Double Dagger 3.4 2.5 94 33 17 16.1 101.63     LegendNANA
05:00 Legend Double Dagger 3.4 2.5 94 33 18 16.1 101.64     LegendNANA
06:00 Legend Double Dagger 2.9 2.3 96 32 18 16.1 101.65     LegendNANA
07:00 Legend Double Dagger 3.4 2.8 96 32 18 16.1 101.67     LegendNANA
08:00 Legend Double Dagger 4.6 3.9 95 32 21 16.1 101.65     LegendNANA
09:00 Legend Double Dagger 6.3 4.9 91 32 24 16.1 101.65     LegendNANA
10:00 Legend Double Dagger 8.0 5.1 82 32 26 16.1 101.65     LegendNANA
11:00 Legend Double Dagger 9.4 4.3 70 33 24 16.1 101.66     LegendNANA
12:00 Legend Double Dagger 10.5 2.2 56 33 22 16.1 101.61     LegendNANA
13:00 Legend Double Dagger 11.5 2.9 55 34 26 16.1 101.59     LegendNANA
14:00 Legend Double Dagger 12.4 2.0 49 34 24 16.1 101.60     LegendNANA
15:00 Legend Double Dagger 12.9 1.1 44 34 30 16.1 101.59     LegendNANA
16:00 Legend Double Dagger 13.0 3.7 53 34 28 16.1 101.58     LegendNANA
17:00 Legend Double Dagger 11.9 4.6 61 34 24 16.1 101.60     LegendNANA
18:00 Legend Double Dagger 11.5 4.1 60 34 24 16.1 101.62     LegendNANA
19:00 Legend Double Dagger 10.9 4.4 64 33 17 16.1 101.60     LegendNANA
20:00 Legend Double Dagger 10.0 5.6 74 30 5 16.1 101.57     LegendNANA
21:00 Legend Double Dagger 9.2 6.4 82 25 9 16.1 101.54     LegendNANA
22:00 Legend Double Dagger 8.7 5.3 79 32 26 16.1 101.54     LegendNANA
23:00 Legend Double Dagger 8.7 6.1 84 2 13 16.1 101.54     LegendNANA

Notes on Data Quality.

Legend

  • E = Estimated
  • M = Missing
  • NA = Not Available
  • ‡ = Partner data that is not subject to review by the National Climate Archives
Date modified: